STARLINK-30880, 58232

Orbit data source: Space-Track

STARLINK-30880, 58232 is a payload satellite owned by SpaceX/Seattle (US) in LEO that was launched on Wed, 08 Nov 2023 UTC via an FALCON 9 launch vehicle from the Air Force Eastern Test Range (AFETR). Payload-class satellites include a variety of spacecraft equipped with specific instruments for various scientific and technological missions. These include communications satellites like Starlink; space stations such as the ISS; scientific satellites like the Hubble; Earth observation satellites from companies like Planet Labs, Umbra, and HawkEye 360; GPS; miniature CubeSats for education and research; and military/defense satellites.

Loading next visibility...
Identifier
58232, 2023-171C
Orbit
LEO
Country
Flag of USUS
Related business
Manufacturer
SpaceX/Seattle
Mission
Operational Commercial Communications
Bus & Motor
STARLINK V2M, Unknown motor
Mass
730 kg wet, ~700 kg dry
Launch date (UTC)
2023-11-08 (3 years ago)
Launch vehicle
FALCON 9
Launch site
Air Force Eastern Test Range (AFETR)
Object type
Payload
Rocket body
Debris
Shape & HBR
Box + 2 Pan, 17.7 m
Radar Cross Section
33.884 m², Large (>1 m²)

Expand to show TLE details & history
Last TLE update: 3 days ago

TLE from 3 days ago
0 STARLINK-30880
1 58232U 23171C   26170.13578247 -.00013678  00000-0 -48952-3 0  9995
2 58232  43.0018  71.9632 0001365 261.5091  98.5606 15.27508225145253
Epoch: 2026-06-19T03:15Z
TLE epoch observation values (Epoch: 2026-06-19T03:15:31.605Z)
Latitude
-0.00001°
Longitude
115.7124°
Altitude
483.179 km
Speed
7.626 km/s
True Right ascension
04h 47m 51s
True Declination
0° 00' 00"
Sunlit
Object was in daylight at epoch
Visualization orbit readout
Latitude
Unknown
Longitude
Unknown
Altitude
Unknown
Speed
Unknown
Apparent Right ascension
Unknown
Apparent Declination
Unknown
Sunlit
N/A
Visualization observer readout
Local Sidereal Time
21:23:36
Azimuth
Unknown
Elevation
Unknown
Doppler factor
Unknown
Orbital elements
Apogee altitude
486.146 km
Perigee altitude
484.272 km
Semi-major axis
6,863.346 km
Eccentricity
0.00014
Inclination
43.0018°
RAAN
71.9632°
Arg. of periapsis
261.5091°
True anomaly
98.57607°
Mean anomaly
98.5606°
Eccentric anomaly
98.56833°
Mean motion
3.81715 °/min
Orbital period
94.31 mins
BSTAR
-0.00048952
Loading maneuver chart data...
Computing Atmospheric mass density...
Loading historical data...
Loading historical data...
Loading historical data...
Loading historical data...
Loading historical data...
Loading historical data...
Loading historical data...

Documentation

Showing up to 5 results
|